******** Week 150 almanac for PRN-1 ******** ID: 1 Health: 0 Eccentricity: 0.01141166687 Time of Applicability(s): 61440 Orbital Inclination(rad): 0.9868254203 Rate of Right Ascen(r/s): -7.634603726e-09 SQRT(A) (m 1/2): 5153.628418 Right Ascen at Week(rad): -2.035077934 Argument of Perigee(rad): 0.881562206 Mean Anom(rad): -2.437788712 Af0(s): 0.0003368924194 Af1(s/s): -1.091394e-11 week: 150 ******** Week 150 almanac for PRN-2 ******** ID: 2 Health: 0 Eccentricity: 0.02064800262 Time of Applicability(s): 61440 Orbital Inclination(rad): 0.9651699259 Rate of Right Ascen(r/s): -7.771752296e-09 SQRT(A) (m 1/2): 5153.651367 Right Ascen at Week(rad): -2.124463773 Argument of Perigee(rad): -1.440072777 Mean Anom(rad): -2.295907848 Af0(s): -0.0005147595581 Af1(s/s): 0 week: 150 ******** Week 150 almanac for PRN-3 ******** ID: 3 Health: 0 Eccentricity: 0.003890037537 Time of Applicability(s): 61440 Orbital Inclination(rad): 0.972474311 Rate of Right Ascen(r/s): -8.103194673e-09 SQRT(A) (m 1/2): 5153.620117 Right Ascen at Week(rad): -0.9996491406 Argument of Perigee(rad): 0.9562516407 Mean Anom(rad): 2.692890916 Af0(s): -0.0001032533813 Af1(s/s): -1.818989e-11 week: 150 ******** Week 150 almanac for PRN-4 ******** ID: 4 Health: 0 Eccentricity: 0.001706123352 Time of Applicability(s): 61440 Orbital Inclination(rad): 0.9615686664 Rate of Right Ascen(r/s): -7.874613723e-09 SQRT(A) (m 1/2): 5153.602051 Right Ascen at Week(rad): 0.08151033122 Argument of Perigee(rad): -3.053245698 Mean Anom(rad): -0.6635418158 Af0(s): -0.0001492275146 Af1(s/s): 3.637979e-12 week: 150 ******** Week 150 almanac for PRN-5 ******** ID: 5 Health: 0 Eccentricity: 0.005864620209 Time of Applicability(s): 61440 Orbital Inclination(rad): 0.9594594428 Rate of Right Ascen(r/s): -8.240343243e-09 SQRT(A) (m 1/2): 5153.610352 Right Ascen at Week(rad): -1.04012998 Argument of Perigee(rad): 1.008762395 Mean Anom(rad): 0.2161939194 Af0(s): -5.727924805e-05 Af1(s/s): 0 week: 150 ******** Week 150 almanac for PRN-6 ******** ID: 6 Health: 0 Eccentricity: 0.002696037292 Time of Applicability(s): 61440 Orbital Inclination(rad): 0.9861962485 Rate of Right Ascen(r/s): -7.623174678e-09 SQRT(A) (m 1/2): 5153.631836 Right Ascen at Week(rad): -2.043350419 Argument of Perigee(rad): -0.950646394 Mean Anom(rad): -2.117415176 Af0(s): 0.000164301001 Af1(s/s): 1.091394e-11 week: 150 ******** Week 150 almanac for PRN-7 ******** ID: 7 Health: 0 Eccentricity: 0.01556110382 Time of Applicability(s): 61440 Orbital Inclination(rad): 0.9508367929 Rate of Right Ascen(r/s): -7.920329913e-09 SQRT(A) (m 1/2): 5153.64209 Right Ascen at Week(rad): 1.100158962 Argument of Perigee(rad): -2.289929218 Mean Anom(rad): -3.109179821 Af0(s): 0.0002464515015 Af1(s/s): 3.637979e-12 week: 150 ******** Week 150 almanac for PRN-8 ******** ID: 8 Health: 0 Eccentricity: 0.007321357727 Time of Applicability(s): 61440 Orbital Inclination(rad): 0.964960202 Rate of Right Ascen(r/s): -7.954617056e-09 SQRT(A) (m 1/2): 5153.673828 Right Ascen at Week(rad): -3.114635639 Argument of Perigee(rad): 0.1103518665 Mean Anom(rad): -0.1819643515 Af0(s): -4.522045898e-05 Af1(s/s): 0 week: 150 ******** Week 150 almanac for PRN-9 ******** ID: 9 Health: 0 Eccentricity: 0.002239227295 Time of Applicability(s): 61440 Orbital Inclination(rad): 0.9545578948 Rate of Right Ascen(r/s): -7.954617056e-09 SQRT(A) (m 1/2): 5153.566895 Right Ascen at Week(rad): 0.028534065 Argument of Perigee(rad): 1.871664413 Mean Anom(rad): 0.1910277961 Af0(s): -0.0002788594971 Af1(s/s): 0 week: 150 ******** Week 150 almanac for PRN-10 ******** ID: 10 Health: 0 Eccentricity: 0.007519721985 Time of Applicability(s): 61440 Orbital Inclination(rad): 0.9723065319 Rate of Right Ascen(r/s): -8.080336578e-09 SQRT(A) (m 1/2): 5153.623047 Right Ascen at Week(rad): -1.002437345 Argument of Perigee(rad): -2.510947162 Mean Anom(rad): 1.809173047 Af0(s): -0.0002577566162 Af1(s/s): -1.091394e-11 week: 150 ******** Week 150 almanac for PRN-11 ******** ID: 11 Health: 255 Eccentricity: 0.0002684593201 Time of Applicability(s): 61440 Orbital Inclination(rad): 0.9619102168 Rate of Right Ascen(r/s): -7.874613723e-09 SQRT(A) (m 1/2): 5153.726562 Right Ascen at Week(rad): -1.991428016 Argument of Perigee(rad): 2.856246762 Mean Anom(rad): -0.3088945206 Af0(s): -6.556966553e-05 Af1(s/s): 1.091394e-11 week: 150 ******** Week 150 almanac for PRN-12 ******** ID: 12 Health: 0 Eccentricity: 0.00869846344 Time of Applicability(s): 61440 Orbital Inclination(rad): 0.9700594897 Rate of Right Ascen(r/s): -8.137481816e-09 SQRT(A) (m 1/2): 5153.541992 Right Ascen at Week(rad): 2.21328186 Argument of Perigee(rad): 1.247697879 Mean Anom(rad): 2.525408751 Af0(s): -0.0001371687256 Af1(s/s): -7.275958e-12 week: 150 ******** Week 150 almanac for PRN-13 ******** ID: 13 Health: 0 Eccentricity: 0.00581073761 Time of Applicability(s): 61440 Orbital Inclination(rad): 0.9690048779 Rate of Right Ascen(r/s): -7.771752296e-09 SQRT(A) (m 1/2): 5153.628418 Right Ascen at Week(rad): 0.1813947263 Argument of Perigee(rad): 0.9554307213 Mean Anom(rad): -0.7407131086 Af0(s): 0.00020952146 Af1(s/s): 7.275958e-12 week: 150 ******** Week 150 almanac for PRN-14 ******** ID: 14 Health: 0 Eccentricity: 0.001447200775 Time of Applicability(s): 61440 Orbital Inclination(rad): 0.9534553461 Rate of Right Ascen(r/s): -8.308917528e-09 SQRT(A) (m 1/2): 5153.588867 Right Ascen at Week(rad): 2.181896299 Argument of Perigee(rad): 3.022334637 Mean Anom(rad): 2.585567313 Af0(s): -6.783068848e-05 Af1(s/s): -3.637979e-12 week: 150 ******** Week 150 almanac for PRN-15 ******** ID: 15 Health: 0 Eccentricity: 0.01394271851 Time of Applicability(s): 61440 Orbital Inclination(rad): 0.9303976974 Rate of Right Ascen(r/s): -8.263201338e-09 SQRT(A) (m 1/2): 5153.683105 Right Ascen at Week(rad): -0.07760272489 Argument of Perigee(rad): 1.076071045 Mean Anom(rad): -1.172974738 Af0(s): -6.481599121e-05 Af1(s/s): 3.637979e-12 week: 150 ******** Week 150 almanac for PRN-16 ******** ID: 16 Health: 0 Eccentricity: 0.01277542114 Time of Applicability(s): 61440 Orbital Inclination(rad): 0.9700175449 Rate of Right Ascen(r/s): -8.137481816e-09 SQRT(A) (m 1/2): 5153.550293 Right Ascen at Week(rad): 2.231899353 Argument of Perigee(rad): 0.7093155629 Mean Anom(rad): 0.6705889146 Af0(s): -0.0003730687866 Af1(s/s): -3.637979e-12 week: 150 ******** Week 150 almanac for PRN-17 ******** ID: 17 Health: 0 Eccentricity: 0.01358318329 Time of Applicability(s): 61440 Orbital Inclination(rad): 0.9800902859 Rate of Right Ascen(r/s): -7.726036106e-09 SQRT(A) (m 1/2): 5153.717773 Right Ascen at Week(rad): -3.032708856 Argument of Perigee(rad): -1.497313929 Mean Anom(rad): -0.2698817489 Af0(s): 0.0004567266357 Af1(s/s): 3.637979e-12 week: 150 ******** Week 150 almanac for PRN-18 ******** ID: 18 Health: 0 Eccentricity: 0.002102375031 Time of Applicability(s): 61440 Orbital Inclination(rad): 0.9706047719 Rate of Right Ascen(r/s): -7.806039438e-09 SQRT(A) (m 1/2): 5153.574707 Right Ascen at Week(rad): -2.027338371 Argument of Perigee(rad): 3.103674567 Mean Anom(rad): -2.23186752 Af0(s): 0.0001869112305 Af1(s/s): -7.275958e-12 week: 150 ******** Week 150 almanac for PRN-19 ******** ID: 19 Health: 0 Eccentricity: 0.008986949921 Time of Applicability(s): 61440 Orbital Inclination(rad): 0.9788559108 Rate of Right Ascen(r/s): -7.737465153e-09 SQRT(A) (m 1/2): 5153.64209 Right Ascen at Week(rad): -2.987856396 Argument of Perigee(rad): 2.009253053 Mean Anom(rad): 2.144793513 Af0(s): 9.571663818e-05 Af1(s/s): 3.637979e-12 week: 150 ******** Week 150 almanac for PRN-20 ******** ID: 20 Health: 0 Eccentricity: 0.005143642426 Time of Applicability(s): 61440 Orbital Inclination(rad): 0.9416329082 Rate of Right Ascen(r/s): -8.388920861e-09 SQRT(A) (m 1/2): 5153.688965 Right Ascen at Week(rad): -1.154290583 Argument of Perigee(rad): 3.137732236 Mean Anom(rad): -1.429501567 Af0(s): 0.0004084914795 Af1(s/s): 0 week: 150 ******** Week 150 almanac for PRN-21 ******** ID: 21 Health: 0 Eccentricity: 0.02459096909 Time of Applicability(s): 61440 Orbital Inclination(rad): 0.9594234901 Rate of Right Ascen(r/s): -7.783181343e-09 SQRT(A) (m 1/2): 5153.534668 Right Ascen at Week(rad): -2.12613033 Argument of Perigee(rad): -1.000877524 Mean Anom(rad): -0.07866295428 Af0(s): 0.0001251099365 Af1(s/s): 0 week: 150 ******** Week 150 almanac for PRN-22 ******** ID: 22 Health: 0 Eccentricity: 0.0129327774 Time of Applicability(s): 61440 Orbital Inclination(rad): 0.9617184692 Rate of Right Ascen(r/s): -7.840326581e-09 SQRT(A) (m 1/2): 5153.610352 Right Ascen at Week(rad): 0.1298063831 Argument of Perigee(rad): -1.871479032 Mean Anom(rad): -0.3892303978 Af0(s): 0.0001710840698 Af1(s/s): 7.275958e-12 week: 150 ******** Week 150 almanac for PRN-23 ******** ID: 23 Health: 0 Eccentricity: 0.001986026764 Time of Applicability(s): 61440 Orbital Inclination(rad): 0.9673390706 Rate of Right Ascen(r/s): -8.126052768e-09 SQRT(A) (m 1/2): 5153.64502 Right Ascen at Week(rad): -1.027325585 Argument of Perigee(rad): 2.971911759 Mean Anom(rad): 3.120616142 Af0(s): 0 Af1(s/s): -3.637979e-12 week: 150 ******** Week 150 almanac for PRN-24 ******** ID: 24 Health: 0 Eccentricity: 0.01235151291 Time of Applicability(s): 61440 Orbital Inclination(rad): 0.9343824522 Rate of Right Ascen(r/s): -8.057478483e-09 SQRT(A) (m 1/2): 5153.643555 Right Ascen at Week(rad): 1.017304525 Argument of Perigee(rad): 0.8080060295 Mean Anom(rad): -2.142371576 Af0(s): 0.0002163045288 Af1(s/s): -3.637979e-12 week: 150 ******** Week 150 almanac for PRN-25 ******** ID: 25 Health: 0 Eccentricity: 0.01052188873 Time of Applicability(s): 61440 Orbital Inclination(rad): 0.9574640693 Rate of Right Ascen(r/s): -8.263201338e-09 SQRT(A) (m 1/2): 5153.649902 Right Ascen at Week(rad): 2.136474588 Argument of Perigee(rad): 0.9818922644 Mean Anom(rad): 2.266841983 Af0(s): 0.0002276096436 Af1(s/s): 3.637979e-12 week: 150 ******** Week 150 almanac for PRN-26 ******** ID: 26 Health: 0 Eccentricity: 0.006896972656 Time of Applicability(s): 61440 Orbital Inclination(rad): 0.9382833174 Rate of Right Ascen(r/s): -8.446066098e-09 SQRT(A) (m 1/2): 5153.640137 Right Ascen at Week(rad): 2.089363102 Argument of Perigee(rad): 0.3711802825 Mean Anom(rad): 1.613961259 Af0(s): 0.0001462128174 Af1(s/s): 3.637979e-12 week: 150 ******** Week 150 almanac for PRN-27 ******** ID: 27 Health: 0 Eccentricity: 0.01027488708 Time of Applicability(s): 61440 Orbital Inclination(rad): 0.9736667414 Rate of Right Ascen(r/s): -7.851755628e-09 SQRT(A) (m 1/2): 5153.604492 Right Ascen at Week(rad): -3.095178126 Argument of Perigee(rad): 0.641090494 Mean Anom(rad): -0.218731579 Af0(s): 0.0001002386841 Af1(s/s): 1.455192e-11 week: 150 ******** Week 150 almanac for PRN-29 ******** ID: 29 Health: 0 Eccentricity: 0.001853466034 Time of Applicability(s): 61440 Orbital Inclination(rad): 0.9821096278 Rate of Right Ascen(r/s): -7.726036106e-09 SQRT(A) (m 1/2): 5153.706055 Right Ascen at Week(rad): -3.019690243 Argument of Perigee(rad): 2.247156395 Mean Anom(rad): -0.08560331853 Af0(s): -0.0003813592041 Af1(s/s): -3.637979e-12 week: 150 ******** Week 150 almanac for PRN-30 ******** ID: 30 Health: 0 Eccentricity: 0.005523681641 Time of Applicability(s): 61440 Orbital Inclination(rad): 0.9359943304 Rate of Right Ascen(r/s): -8.068907531e-09 SQRT(A) (m 1/2): 5153.524414 Right Ascen at Week(rad): 1.113212405 Argument of Perigee(rad): -2.74196332 Mean Anom(rad): -3.068824067 Af0(s): -0.0004062304565 Af1(s/s): -3.637979e-12 week: 150 ******** Week 150 almanac for PRN-31 ******** ID: 31 Health: 0 Eccentricity: 0.01045894623 Time of Applicability(s): 61440 Orbital Inclination(rad): 0.9550432559 Rate of Right Ascen(r/s): -7.874613723e-09 SQRT(A) (m 1/2): 5153.643555 Right Ascen at Week(rad): 1.118275365 Argument of Perigee(rad): 0.3767829077 Mean Anom(rad): 2.721402885 Af0(s): -0.0001311393311 Af1(s/s): 0 week: 150 ******** Week 150 almanac for PRN-32 ******** ID: 32 Health: 0 Eccentricity: 0.005598545074 Time of Applicability(s): 61440 Orbital Inclination(rad): 0.9584108231 Rate of Right Ascen(r/s): -7.908900866e-09 SQRT(A) (m 1/2): 5153.726074 Right Ascen at Week(rad): 0.03975467008 Argument of Perigee(rad): -2.349670953 Mean Anom(rad): 0.4198733118 Af0(s): -5.652557373e-05 Af1(s/s): -7.275958e-12 week: 150